Regional Weather Roundup
Issued by NWS

Home | Current Version | Previous Version | Graphics & Text | Print | Product List | Glossary On
Versions: 1 2 3 4 5 6 7 8 9 10 11 12 13 14 15 16 17 18 19 20 21 22 23 24 25 26 27 28 29 30 31 32 33 34 35 36 37 38 39 40 41 42 43 44 45 46 47 48 49 50
000
ASUS43 KLOT 161258
RWRIL

ILLINOIS REGIONAL WEATHER ROUNDUP
NATIONAL WEATHER SERVICE CHICAGO/ROMEOVILLE IL
800 AM CDT TUE SEP 16 2014

NOTE: "FAIR" INDICATES FEW OR NO CLOUDS BELOW 12,000 FEET WITH NO
SIGNIFICANT WEATHER AND/OR OBSTRUCTIONS TO VISIBILITY.

* THESE STATIONS ARE NOT UNDER NWS QUALITY CONTROL. THEY ALSO MAY NOT
  REPORT WEATHER SUCH AS PRECIPITATION OR FOG.

ILZ001-002-007-009-015-016-024-161400-
NORTHWEST ILLINOIS

CITY           SKY/WX    TMP DP  RH WIND       PRES   REMARKS
MOLINE         SUNNY     46  44  93 CALM      30.25R
$$

ILZ003-004-008-010-011-017-018-161400-
NORTH CENTRAL ILLINOIS

CITY           SKY/WX    TMP DP  RH WIND       PRES   REMARKS
ROCKFORD       NOT AVBL
$$

ILZ005-006-012>014-019>023-161400-
NORTHEAST ILLINOIS

CITY           SKY/WX    TMP DP  RH WIND       PRES   REMARKS
CHICAGO-OHARE  MOSUNNY   48  43  82 N7        30.21R
CHICAGO-MIDWAY MOSUNNY   51  46  83 NW5       30.21R
AURORA         SUNNY     45  42  89 NW3       30.23R
WAUKEGAN       SUNNY     48  43  82 NW3       30.20S
DUPAGE AIRPORT SUNNY     48  44  86 CALM      30.21S
WHEELING       SUNNY     50  44  80 NW5       30.22S
NORTHERLY ISL    N/A     55  46  71 W2          N/A
$$

LMZ740>746-161400-
SOUTHERN LAKE MICHIGAN

STATION/POSITION SKY/WX   TEMP    WIND        PRES    VSBY  WAVE
                          AIR SEA DIR/SP/G                  HT/PER
                          (F)     (DEG/KT/KT) (MB)    (MI)  (FT/S)
SOUTHERN BUOY              58 63  340/ 10/ 12 1022.2R
WAUKEGAN HARBOR            47     320/  8/ 10   N/A
HARRISON CRIB              51     310/  9/ 10   N/A
BURNHAM HARBOR             54     250/  2/  6   N/A
CALUMET HARBOR             51     280/  3/  4   N/A
MICHIGAN CITY              53     100/  4/  6   N/A
MICHIGAN CITY 6N           56 64  140/  4/  8   N/A           2/ 4
ST. JOSEPH                 56 67  120/  6/ 10   N/A           1/ 4
$$

ILZ025>027-034>036-040-047-049-050-058-095>099-161400-
WEST-CENTRAL ILLINOIS

CITY           SKY/WX    TMP DP  RH WIND       PRES   REMARKS
QUINCY         SUNNY     50  48  93 CALM      30.24S FOG
$$

ILZ028>032-037-038-041>044-048-051>054-059>061-161400-
CENTRAL ILLINOIS

CITY           SKY/WX    TMP DP  RH WIND       PRES   REMARKS
PEORIA         FOG       48  46  93 NW3       30.24S VSB 1
SPRINGFIELD    PTSUNNY   53  50  89 CALM      30.24R FOG
TAYLORVILLE    NOT AVBL
$$

ILZ033-039-045-046-055>057-062-063-161400-
EAST-CENTRAL ILLINOIS

CITY           SKY/WX    TMP DP  RH WIND       PRES   REMARKS
CHAMPAIGN      SUNNY     54  51  90 N5        30.22S FOG
MATTOON        CLOUDY    55  53  93 N7        30.21S FOG
$$

ILZ079-100>102-161400-
SOUTHWEST ILLINOIS

CITY           SKY/WX    TMP DP  RH WIND       PRES   REMARKS
ALTON          CLOUDY    55  54  94 NE7       30.23R
CAHOKIA*       CLOUDY    59  53  80 N6        30.23R
$$

ILZ064>066-069>071-074>076-080>082-084>086-088>090-092>094-161400-
SOUTH-CENTRAL ILLINOIS

CITY           SKY/WX    TMP DP  RH WIND       PRES   REMARKS
CARBONDALE     CLOUDY    58  52  80 NE8       30.20S
$$

ILZ067-068-072-073-078-083-087-091-161400-
SOUTHEAST ILLINOIS

CITY           SKY/WX    TMP DP  RH WIND       PRES   REMARKS
$$

ABBREVIATIONS USED IN REMARKS
   TC - TEMPERATURE IN CELSIUS
  WCI - WIND CHILL INDEX
   HX - HEAT INDEX
  VSB - VISIBILITY
$$



USA.gov is the U.S. government's official web portal to all federal, state and local government web resources and services.